Current weather by "City, St" or "zip code"  
 

Current Conditions: JACKSONVIL/CECIL

Light Rain


68.0 F

Last Updated on Sep 28 2022, 04:50 PM EDT
Humidity: 100%
Wind Speed: 13.9 G 28.9 mph
Barometer 29.87 in
Dewpoint: 68.0 F
Visibility: 6.00 mi
Precip: --
Heat Index: NA
Wind Chill: NA
Current conditions at:

JACKSONVIL/CECIL (KVQQ)

Lat: 30.22 Lon: 81.88

Local Radar Image active severe weather and emergency alerts image image weather storm and storm spotter reports image weather observation monitoring service image
Local
Radar
Active
Alerts
Storm Reports Obs
Monitoring

Sign-up For Email & Text Message Weather Alert Notification Services



Advertise Here

Observation History for JACKSONVIL/CECIL


Time Wind
(mph)
Vis
(mi)
Weather Precip (in) Temperature (F) Relative
Humidity
Wind
Chill
(F)
Heat
Index
(F)
Pressure
Air Dwpt altimeter
(in)
sea level
(mb)
Rmks
04:50 PM EDT 13.9 G 28.9 6.00 Light Rain -- 68.0 68.0 100% NA NA 29.87 1011.5
03:50 PM EDT G 31.1 3.00 Light Rain -- 68.0 68.0 100% NA NA 29.87 1011.5
02:50 PM EDT 11.4 G 21.9 3.00 Light Rain -- 69.8 69.8 100% NA NA 29.90 1012.5
01:50 PM EDT 13.9 5.00 Light Rain -- NULL % NA NA 29.92 1013.2
12:50 PM EDT 9.2 2.00 Rain and Fog/Mist -- 68.0 68.0 100% NA NA 29.94 1013.9
11:50 AM EDT 9.2 G 17.2 8.00 Light Rain -- 68.0 68.0 100% NA NA 29.95 1014.2
10:58 AM EDT 12.8 G 25.3 2.00 Light Rain and Fog/Mist -- 69.8 66.2 88% NA NA 29.96 1014.6
09:50 AM EDT 12.8 10.00 Cloudy -- 71.6 66.2 83% NA 72.3 29.94 1013.6
08:50 AM EDT 10.00 Cloudy -- 69.8 64.4 83% NA NA 29.94 1013.9
07:50 AM EDT 11.4 10.00 Cloudy -- 69.8 64.4 83% NA NA 29.94 1013.6
06:50 AM EDT 12.8 10.00 Cloudy -- 71.6 64.4 78% NA 72.1 29.94 1013.6
06:35 AM EDT 8.1 10.00 Cloudy -- 71.6 62.6 73% NA 72.0 29.94 1013.6
06:15 AM EDT 10.3 10.00 Cloudy -- 71.6 62.6 73% NA 72.0 29.92 1013.2
05:55 AM EDT 9.2 10.00 Cloudy -- 71.6 62.6 73% NA 72.0 29.92 1013.2
05:35 AM EDT 10.00 Cloudy -- NULL % NA NA M
05:15 AM EDT 10.00 Cloudy -- NULL % NA NA M
04:55 AM EDT 8.1 10.00 Cloudy -- 71.6 60.8 69% NA 71.8 29.92 1013.2
04:35 AM EDT 9.2 10.00 Cloudy -- 71.6 60.8 69% NA 71.8 29.92 1013.2
04:15 AM EDT 10.00 Cloudy -- NULL % NA NA M
03:55 AM EDT 9.2 10.00 Cloudy -- 71.6 60.8 69% NA 71.8 29.94 1013.9
03:35 AM EDT 8.1 10.00 Mostly Cloudy -- 71.6 60.8 69% NA 71.8 29.95 1014.2
03:15 AM EDT 10.00 Mostly Cloudy -- NULL % NA NA M
02:55 AM EDT 6.9 10.00 Mostly Cloudy -- 69.8 60.8 73% NA NA 29.95 1014.2
02:35 AM EDT 10.00 Cloudy -- NULL % NA NA M

Regional Weather Observation


JACKSONVILLE (KJAX)

Light Rain
66.9 F

LAKE CITY (KLCQ)

Cloudy
NULL F

JACKSONVILLE NAS (KNIP)

Light Rain
72.0 F

JACKSONVIL/CRAIG (KCRG)

Light Rain and Fog/Mist
NULL F

FERNANDINA BEACH (KFHB)

Light Rain
NULL F

MAYPORT NAS (KNRB)

Light Rain and Fog/Mist
NULL F

Advertise Here


Advertise Here